ROMMA est une association bénévole à but non lucratif. Votre soutien est indispensable : ADHERER à ROMMA ou FAIRE un DON

Le Versoud - (38, Isère)

Vallée du Grésivaudan (220 m)   Longitude: 05° 51' 44" E   Latitude: 45° 13' 06" N Station partenaire n°6
 

Détail journalier du     <<     >>

Température Humidité Pression Vent Dir Rafale Dir. rafale Ensol.
Heure (°C) (%) (hPa) (km/h) (km/h) (min)
01:00 9.37310124SSE19SSE0
02:00 8.97410121SSE21SSE0
03:00 9.67110121SSE19SSE0
04:00 9.37410111S8S0
05:00 9.37710111S16SE0
06:00 8.1891012013SSE0
07:00 7.393101206S0
08:00 7.69110121S13S0
09:00 8.18810121S13S0
10:00 8.48610123S19SE0
11:00 12.05310125SSO34S0
12:00 11.75910133S35S0
13:00 12.25110121---15SSO0
14:00 13.04410115S31SSE0
15:00 11.85410124SSO24SSO0
16:00 9.86710123SE31SSE0
17:00 7.3861014016N0
18:00 5.68810141NE19NE0
19:00 4.79110162---24NE0
20:00 4.493101600---0
21:00 4.493101606SSE0
22:00
23:00
minuit

Graphique du 28-01-2020

 

Serveur OMMA